SCP
0 0 0 0 0 0 0 0 0 0 0 1 1 2 2 3 3 4 5 7 7 6 4 4 4 6 8 8 7 5 4 4 3 3 3 3 3 3 2 2 2 2 2 2
0 0 0 0 0 0 0 0 0 0 1 1 1 2 3 3 3 3 5 6 6 5 4 4 4 6 8 8 6 5 4 4 3 3 4 3 3 3 3 3 2 2 2 2
0 0 0 0 0 0 0 0 0 0 1 1 1 2 3 4 4 4 4 5 5 4 4 4 4 5 7 7 5 4 4 4 4 4 4 3 3 3 3 3 2 2 2 2
0 0 0 0 0 0 0 0 0 0 1 1 1 1 3 4 5 5 4 4 4 3 4 4 4 5 6 6 5 4 5 5 5 5 4 3 3 3 3 3 3 2 2 2
0 0 0 0 0 0 0 0 0 0 0 0 1 1 2 4 6 6 4 4 3 3 3 3 3 4 6 6 5 5 5 5 5 5 5 4 4 3 3 3 3 3 3 3
0 0 0 0 0 0 0 0 0 0 0 0 1 1 2 4 6 6 4 4 3 3 3 3 3 4 5 7 7 5 5 5 5 5 5 5 5 4 3 3 3 3 3 3
0 0 0 0 0 0 0 0 1 0 0 0 1 1 3 5 5 5 5 5 4 3 2 3 3 4 6 8 8 6 6 6 6 5 6 6 6 5 4 4 4 4 4 3
0 0 0 0 0 0 0 0 1 0 0 0 1 2 4 6 6 6 6 5 4 3 2 3 4 4 6 9 9 7 7 8 6 5 6 6 7 6 5 5 4 5 5 4
0 0 0 0 0 0 0 0 0 0 0 0 1 2 4 5 6 6 6 5 3 3 3 3 4 5 6 8 8 7 7 8 7 6 5 6 7 8 8 7 7 6 6 6
0 0 0 0 0 0 0 0 0 0 0 0 1 2 3 4 5 5 4 4 3 3 3 4 5 5 6 7 7 7 7 8 7 7 7 8 9 9 10 10 9 8 8 9
0 0 0 0 0 0 0 0 0 0 0 0 0 1 2 3 3 3 3 4 4 4 5 5 5 6 6 6 7 9 10 10 9 9 9 10 10 10 9 9 9 10 11 13
0 0 0 0 0 0 0 0 0 1 1 0 1 2 3 4 3 3 4 4 5 6 6 6 7 7 7 7 9 12 13 13 12 11 11 11 11 9 7 7 8 9 13 16
0 0 0 0 0 0 0 0 0 0 1 1 1 2 4 4 4 4 4 4 5 5 6 7 8 9 8 9 11 13 13 13 12 11 12 11 10 8 7 7 7 8 12 16
0 0 0 0 0 0 0 0 0 0 0 1 1 2 3 4 4 4 3 4 4 5 7 9 10 10 10 9 10 11 11 11 10 10 11 10 8 6 6 6 7 8 13 16
1 1 0 0 0 0 0 0 0 0 0 1 1 2 3 4 5 5 4 4 5 6 9 10 10 11 10 9 9 9 10 10 9 9 8 7 7 6 6 6 7 9 12 14
1 1 1 0 0 0 0 0 0 0 0 1 1 2 3 5 6 7 6 6 6 8 9 9 10 11 12 11 11 10 11 11 10 8 6 6 7 7 7 7 8 9 9 9
2 1 1 0 0 0 0 0 0 0 1 1 1 2 3 5 7 8 7 6 6 8 9 10 11 13 14 14 12 12 12 12 10 8 7 7 8 8 8 8 8 7 7 6
2 2 1 1 0 0 0 0 1 1 1 1 2 2 3 5 7 7 7 6 6 8 9 11 12 13 14 14 13 11 11 11 10 9 8 9 9 9 9 9 8 8 8 7
3 3 2 1 1 1 1 1 1 1 1 2 2 2 3 6 7 7 6 6 7 9 11 11 11 12 14 14 12 11 10 10 10 9 9 10 11 11 11 11 11 12 12 11
2 2 2 1 1 1 1 2 1 1 2 3 4 4 4 6 7 8 8 9 10 12 13 12 12 13 15 14 13 11 10 10 9 9 10 12 13 14 14 14 15 17 17 16
1 2 1 1 1 1 2 2 2 2 3 4 6 5 5 6 8 11 13 13 14 13 13 12 12 14 14 14 13 12 11 11 10 11 12 14 15 16 16 16 17 18 18 17
1 1 1 1 1 1 2 2 2 2 3 4 6 7 8 9 11 13 15 15 14 13 12 11 11 11 12 13 13 14 14 14 13 13 13 14 15 15 15 15 16 16 16 16
1 2 2 2 2 3 3 3 3 2 3 3 5 9 11 12 13 14 14 13 12 12 12 11 10 9 10 12 14 16 18 18 17 14 13 13 14 15 14 14 13 13 13 13
2 2 2 2 2 3 4 4 3 2 2 3 6 12 14 13 12 11 10 10 10 11 12 12 11 9 9 10 14 17 19 20 17 14 13 13 15 15 14 12 11 11 10 9
1 1 2 2 2 2 3 3 3 2 2 3 7 12 14 11 9 8 8 8 9 10 11 12 13 11 10 10 12 14 17 17 15 13 14 15 15 15 13 11 9 7 6 5
1 1 1 1 2 2 2 2 3 3 2 3 7 12 13 10 8 7 7 8 9 9 10 12 12 11 10 10 11 12 14 14 13 13 15 16 16 15 13 10 7 5 4 3
Wind_Speed
12 11 13 13 12 13 13 11 9 7 6 8 8 6 8 9 7 8 9 9 9 8 8 8 8 9 9 7 6 5 5 4 2 2 2 2 1 1 2 2 2 2 1 1
13 16 16 13 12 14 13 11 10 7 8 7 8 8 9 10 9 8 10 9 10 10 9 9 8 8 8 7 6 6 5 4 3 2 2 1 1 1 2 1 2 2 1 1
17 12 11 12 12 13 12 10 9 9 6 7 8 8 9 10 9 9 9 10 10 10 10 10 10 9 8 8 7 6 5 5 3 3 2 1 1 0 2 2 1 2 2 2
15 14 12 11 12 11 11 9 9 11 9 7 9 8 9 10 11 11 10 9 10 9 9 10 10 10 9 9 8 6 6 5 3 3 2 2 2 1 1 1 2 2 2 2
13 13 13 13 12 11 10 7 8 10 10 10 9 9 7 8 9 8 10 10 10 10 10 10 10 9 9 8 8 8 7 5 4 3 2 1 1 1 1 1 2 1 2 2
14 13 13 13 11 10 9 9 8 9 9 11 12 10 6 7 10 9 10 10 11 11 10 10 10 10 9 8 8 8 7 6 4 3 3 2 1 1 1 1 1 1 1 1
14 15 14 12 11 11 11 8 6 8 9 11 11 10 5 6 8 10 11 10 10 10 9 10 10 9 8 9 8 9 8 6 5 4 3 2 1 1 1 1 1 1 1 1
12 13 13 12 12 11 11 11 8 8 8 7 8 7 6 8 8 11 11 11 10 10 9 9 9 8 8 8 8 8 9 7 5 5 3 3 2 1 1 0 0 0 1 1
10 11 10 10 11 12 11 11 11 11 10 9 7 4 6 10 8 10 11 10 10 10 9 9 9 8 8 9 8 8 8 7 5 5 4 3 2 1 1 1 0 0 1 1
10 10 10 9 9 12 12 10 7 10 8 9 8 7 5 9 9 9 10 11 10 8 9 9 7 6 7 8 8 8 8 7 6 5 3 3 2 1 2 2 1 0 1 2
8 9 10 10 12 11 10 12 10 8 8 8 7 4 3 6 7 8 10 9 10 10 8 8 8 7 7 7 8 8 8 7 6 5 4 4 3 2 2 2 2 1 1 1
6 7 10 12 11 11 11 12 11 8 8 9 8 3 3 5 5 6 7 8 8 8 8 7 8 8 8 7 7 7 7 7 6 5 5 4 4 3 2 2 2 2 1 1
4 5 7 10 9 10 11 11 11 9 7 8 9 3 4 5 5 6 7 7 7 7 8 8 8 7 7 6 6 6 5 6 6 6 5 4 3 2 2 2 2 1 1 1
5 6 9 11 9 9 10 12 12 10 9 9 8 4 3 4 5 5 6 6 7 6 6 7 7 7 6 6 6 6 5 5 5 5 5 4 3 3 2 2 2 1 1 1
5 8 10 13 14 13 12 12 12 11 11 10 6 5 3 2 3 4 5 7 7 7 6 7 7 7 7 6 6 6 5 5 5 5 5 5 4 3 2 2 2 2 2 1
4 7 10 14 14 14 13 12 11 11 10 10 9 4 1 2 2 4 4 5 5 6 7 7 7 7 7 7 6 6 6 5 5 5 5 5 4 4 3 3 3 2 2 1
5 7 9 11 12 13 12 10 10 9 8 8 7 3 2 2 2 3 4 4 4 4 5 6 6 6 6 6 6 6 6 5 5 5 5 5 5 5 4 3 3 2 2 2
7 7 7 10 11 13 7 7 8 6 5 4 3 3 4 4 3 3 4 4 5 4 5 6 5 5 6 5 6 5 6 6 5 5 5 5 5 5 4 4 3 3 2 2
7 7 7 8 11 12 8 5 4 5 3 3 2 1 1 0 2 3 3 4 3 3 5 5 5 5 5 5 5 5 5 6 6 6 6 5 5 5 5 4 3 3 2 2
9 7 8 9 11 11 6 5 6 5 4 3 2 1 1 1 3 2 3 4 3 3 4 4 5 5 5 4 4 5 6 6 6 6 5 5 5 5 5 4 4 3 2 2
9 9 11 12 11 7 4 5 6 4 1 4 4 3 2 2 2 2 3 3 3 4 4 4 4 4 4 4 4 5 5 5 5 5 5 4 4 4 4 4 3 3 3 3
8 8 9 9 10 5 7 4 2 3 5 5 5 4 3 1 1 2 2 3 3 4 4 3 3 3 3 4 4 5 5 4 4 5 5 5 4 4 4 4 4 4 4 4
4 3 2 2 2 3 6 5 3 4 5 4 4 3 2 1 1 2 2 2 2 3 3 3 3 3 3 3 4 4 3 3 4 4 4 4 4 3 3 4 4 4 4 4
3 2 2 2 3 3 2 3 4 5 5 5 4 4 3 2 1 1 2 2 2 2 2 2 3 3 3 3 3 3 3 4 3 3 3 3 3 3 3 3 3 3 3 3
7 5 4 4 4 3 1 2 3 4 5 5 4 3 2 1 1 1 1 1 2 2 2 2 2 2 3 3 3 3 3 4 4 3 3 3 3 2 2 1 1 1 1 1
5 5 5 4 4 4 3 3 4 3 4 5 5 4 3 2 2 1 1 1 1 2 3 2 2 2 2 3 3 3 3 4 4 4 4 3 3 3 3 2 0 2 1 1
Wind_Direction
219 228 234 236 236 250 258 264 254 240 211 218 222 210 183 185 192 186 174 164 160 149 143 140 142 142 141 138 139 139 135 132 139 133 153 155 155 143 119 128 133 133 133 105
227 228 233 238 245 249 256 260 257 247 225 223 228 220 198 186 190 188 176 168 157 149 146 151 145 140 137 137 142 138 136 141 160 137 149 168 155 167 143 120 120 132 135 143
234 239 230 235 237 244 249 252 263 259 234 223 235 235 218 182 189 184 177 167 161 157 158 158 150 148 147 150 149 143 137 138 143 136 142 129 134 125 103 120 123 148 153 151
238 243 240 239 245 243 245 238 248 256 248 241 232 238 227 187 186 184 177 168 163 159 164 160 158 157 157 155 147 137 133 134 135 136 139 159 156 145 143 161 146 170 162 158
244 241 239 239 239 241 257 258 251 256 256 256 236 239 231 192 191 189 179 171 167 164 171 166 160 160 156 151 148 141 134 135 136 144 136 137 121 130 144 141 132 174 161 155
253 255 246 244 240 237 250 256 253 258 260 253 243 243 225 203 187 185 188 177 171 169 170 162 159 157 154 153 151 142 138 139 144 154 146 148 130 124 126 118 136 179 158 169
243 244 239 238 238 230 233 237 241 238 236 244 241 235 203 175 173 178 189 182 176 166 162 160 159 158 157 156 153 147 142 145 150 154 147 142 134 139 137 136 162 209 173 155
240 238 230 223 230 231 229 234 239 253 251 261 255 239 165 160 158 166 172 172 169 165 165 161 160 156 157 152 149 147 144 150 153 153 153 146 152 162 131 186 285 285 344 101
254 245 233 227 227 238 234 237 247 258 270 266 250 224 169 162 161 161 164 165 164 163 165 162 158 156 158 151 144 143 145 150 154 155 157 153 153 150 112 125 293 30 20 105
270 274 254 230 227 234 244 241 245 252 263 267 258 231 200 171 167 163 162 161 157 162 167 158 147 151 152 145 139 141 146 149 151 149 158 148 139 142 137 142 145 74 75 55
269 277 268 243 226 231 235 242 246 258 260 265 263 242 182 167 171 167 162 161 158 161 163 154 150 145 140 142 146 149 147 149 152 154 149 128 133 132 119 114 114 90 67 85
262 273 276 266 250 244 238 244 244 249 255 261 268 268 95 138 147 156 148 147 154 157 151 153 158 147 148 147 144 146 151 155 156 152 142 139 138 139 136 129 108 109 119 101
288 262 267 270 248 234 239 243 252 252 258 257 259 231 117 114 131 153 144 146 151 160 162 161 150 141 143 143 141 143 146 150 153 152 145 134 129 136 129 116 119 127 121 98
260 250 247 254 262 260 251 250 251 252 251 254 257 238 172 153 156 147 141 141 147 162 167 153 145 147 147 146 147 150 149 147 150 145 142 139 141 142 142 140 137 138 121 117
258 255 256 266 270 265 258 251 247 249 255 258 258 247 231 181 160 141 139 146 152 170 169 154 150 149 150 150 151 154 155 152 149 154 156 154 153 149 152 146 130 127 129 126
249 264 271 269 268 268 270 260 246 243 250 254 262 257 226 129 152 153 150 158 164 172 169 158 150 145 151 154 160 157 159 159 156 161 164 158 157 155 151 147 137 130 126 94
248 254 262 264 268 271 261 266 257 246 243 246 247 240 163 189 184 167 149 156 164 180 160 156 156 152 152 155 156 159 162 162 165 164 171 165 162 164 167 166 149 143 134 114
253 265 261 266 270 259 254 263 266 259 255 257 240 213 198 195 176 163 152 162 170 174 160 150 145 146 152 153 157 162 168 169 172 172 174 171 168 168 163 164 156 153 148 156
219 239 258 259 256 262 266 270 279 260 260 296 291 261 270 288 171 180 155 154 155 157 139 143 150 153 152 157 163 167 173 174 178 179 181 179 174 169 172 172 167 168 173 181
206 214 241 255 258 252 258 311 318 285 246 330 16 357 311 327 239 198 114 112 120 127 124 140 147 149 154 163 169 177 184 187 189 185 182 179 178 175 179 177 174 177 178 198
218 220 231 249 255 256 306 324 313 266 302 5 11 5 334 328 345 70 96 112 132 129 125 133 140 147 156 166 177 186 190 192 187 180 178 178 179 176 179 173 171 177 193 204
236 241 237 244 248 254 345 354 12 12 357 358 357 14 17 354 75 93 100 112 117 125 137 145 147 146 152 169 184 190 190 187 182 177 180 180 177 194 188 169 178 193 202 205
245 258 284 291 274 340 4 35 35 359 338 347 349 2 352 341 155 145 134 123 131 139 145 147 154 156 166 181 190 193 180 173 176 177 182 178 177 182 179 183 192 199 208 217
289 291 258 247 226 255 328 353 358 344 327 332 347 354 349 343 320 166 137 138 135 140 145 148 166 177 176 182 185 174 170 169 175 180 178 177 180 191 182 192 207 210 215 220
305 300 264 262 275 299 312 360 349 336 320 322 331 337 332 302 304 12 67 103 123 136 147 160 170 169 174 173 170 173 171 163 166 179 182 187 195 187 170 179 227 235 242 242
295 302 299 293 304 306 314 325 321 320 312 324 335 328 330 348 345 9 67 105 146 170 158 156 174 181 173 170 167 167 166 172 172 178 186 200 196 182 191 184 190 22 308 283